Location: 22
(39.7117°N, 89.5929°W)
Time: 19:44:13
(UTC-05:00)

Vanguard 3 - Pass Details

Date: 05 February 2023
Orbit: 508 x 3249 km, 33.4° (Epoch: 30 March)

Event Time Altitude Azimuth Distance (km) Brightness Sun altitude
Rises 19:07:01 0° 251° (WSW) 4,005 12.1 -20.4°
Reaches altitude 10° 19:09:17 10° 247° (WSW) 3,312 11.3 -20.8°
Maximum altitude 19:17:55 62° 169° (S) 2,090 9.0 -22.5°
Enters shadow 19:25:24 32° 103° (ESE) 3,547 9.8 -23.9°
Drops below altitude 10° 19:33:12 10° 94° (E) 5,597 - -25.4°
Sets 19:38:20 0° 92° (E) 6,900 - -26.4°
